Tracking 27086 objects as of 22-Mar-2023
HD Live streaming from Space Station
objects crossing your sky now

ONEWEB-0660

Track ONEWEB-0660 now!
10-day predictions
ONEWEB-0660 is classified as:


NORAD ID: 55820
Int'l Code: 2023-029AA
Perigee: 590.1 km
Apogee: 608.1 km
Inclination: 86.5 °
Period: 96.5 minutes
Semi major axis: 6970 km
RCS: Unknown
Launch date: March 9, 2023
Source: United Kingdom (UK)
Launch site: AIR FORCE EASTERN TEST RANGE (AFETR)
Your satellite tracking list
Your tracking list is empty




NASA's NSSDC Master Catalog

Two Line Element Set (TLE):
1 55820U 23029AA  23080.84892366  .00003517  00000-0  34455-3 0  9995
2 55820  86.5122 194.0108 0012891 170.0620 190.0865 14.91922063  1801
Source of the keplerian elements: AFSPC